This is the latest recevied weather packets stored in our database for station/object SQ9SMC-13. If no packets are shown the sender has not sent any weather packets the latest 10 day(s).
| Time | Temp. | Humidity | Pressure | Rain* | Wind** | Luminosity | Snow |
|---|---|---|---|---|---|---|---|
| 1777882203 | 21.11° C | 37% | 1017.2 hPa | 0 mm | - | 407 W/m² | - |
| 1777881903 | 21.11° C | 38% | 1017.2 hPa | 0 mm | - | 394 W/m² | - |
| 1777881604 | 21.11° C | 37% | 1017.2 hPa | 0 mm | - | 395 W/m² | - |
| 1777881303 | 21.11° C | 37% | 1017.1 hPa | 0 mm | - | 427 W/m² | - |
| 1777881006 | 21.11° C | 37% | 1017.1 hPa | 0 mm | - | 481 W/m² | - |
| 1777880404 | 21.11° C | 38% | 1017.2 hPa | 0 mm | - | 454 W/m² | - |
| 1777880104 | 20.56° C | 38% | 1017.1 hPa | 0 mm | - | 450 W/m² | - |
| 1777879803 | 20.56° C | 37% | 1017.3 hPa | 0 mm | - | 436 W/m² | - |
| 1777879503 | 20° C | 38% | 1017.1 hPa | 0 mm | - | 394 W/m² | - |
| 1777879203 | 20.56° C | 38% | 1017.3 hPa | 0 mm | - | 385 W/m² | - |
| 1777878904 | 20° C | 39% | 1017.1 hPa | 0 mm | - | 390 W/m² | - |
| 1777878604 | 20° C | 39% | 1017.3 hPa | 0 mm | - | 384 W/m² | - |
| 1777878302 | 20° C | 38% | 1017.1 hPa | 0 mm | - | 376 W/m² | - |
| 1777878003 | 19.44° C | 39% | 1017 hPa | 0 mm | - | 368 W/m² | - |
| 1777877706 | 19.44° C | 39% | 1016.9 hPa | 0 mm | - | 333 W/m² | - |
| 1777877403 | 19.44° C | 39% | 1017.1 hPa | 0 mm | - | 339 W/m² | - |
| 1777877103 | 18.89° C | 40% | 1017.1 hPa | 0 mm | - | 326 W/m² | - |
| 1777876814 | 18.89° C | 41% | 1017 hPa | 0 mm | - | 308 W/m² | - |
| 1777876503 | 18.89° C | 40% | 1017.3 hPa | 0 mm | - | 293 W/m² | - |
| 1777876204 | 18.33° C | 41% | 1017.2 hPa | 0 mm | - | 282 W/m² | - |
| 1777875903 | 18.33° C | 41% | 1017.2 hPa | 0 mm | - | 267 W/m² | - |
| 1777875604 | 17.78° C | 42% | 1017.1 hPa | 0 mm | - | 244 W/m² | - |
| 1777875303 | 17.78° C | 42% | 1017.1 hPa | 0 mm | - | 236 W/m² | - |
| 1777875003 | 17.22° C | 43% | 1017.2 hPa | 0 mm | - | 225 W/m² | - |
| 1777874702 | 17.22° C | 42% | 1017.1 hPa | 0 mm | - | 170 W/m² | - |
* Rain latest hour (hover to see other rain measurements)
** Current wind speed in m/s (hover to see current wind gust speed)